Weather Roundup
Issued by NWS Springfield, MO

Home | Current Version | Previous Version | Text Only | Print | Product List | Glossary On
Versions: 1 2 3 4 5 6 7 8 9 10 11 12 13 14 15 16 17 18 19 20 21 22 23 24 25 26 27 28 29 30 31 32 33 34 35 36 37 38 39 40 41 42 43 44 45 46 47 48 49 50
000
NZUS99 KSGF 180007
HRRSGF

HOURLY WEATHER
NATIONAL WEATHER SERVICE SPRINGFIELD MO
700 PM CDT WED SEP 17 2014

......SGF CWA......

CITY           SKY/WX    TMP DP  RH WIND       PRES   REMARKS
SPRINGFIELD    CLEAR     68  64  87 S5        29.89F
6HR MIN TEMP:  64; 6HR MAX TEMP:  70; 6HR PCP:  0.14;

JOPLIN         PTCLDY    72  64  76 SE6       29.87S
6HR MIN TEMP:  70; 6HR MAX TEMP:  88; 6HR PCP: TRACE;

WEST PLAINS    MOCLDY    65  61  87 CALM      29.93F
6HR MIN TEMP:  62; 6HR MAX TEMP:  66; 6HR PCP:  0.09;

ROLLA          CLOUDY    64  62  93 E7        29.91F FOG
6HR MIN TEMP:  64; 6HR MAX TEMP:  67;

OSAGE BEACH    CLOUDY    72  64  78 E5        29.90S
BRANSON        MOCLDY    66  64  94 CALM      29.92F

......SURROUNDING SGF CWA......

CITY           SKY/WX    TMP DP  RH WIND       PRES   REMARKS
CHANUTE        CLEAR     82  73  74 E8        29.85R
PARSONS        CLEAR     86  72  62 CALM      29.84S HX  92
COFFEYVILLE    CLEAR     88  71  57 SE3       29.82R HX  94
EMPORIA        CLEAR     76  67  73 NE12      29.86F
GROVE OK       MOCLDY    70  66  88 NE9       29.91R
ROGERS AR      CLOUDY    66  63  90 S10       29.92F
SILOAM SPRINGS CLOUDY    66  61  82 SE13      29.93F THUNDER
HARRISON AR    CLOUDY    67  65  93 N5        29.90F
NEAR YELLVILLE CLOUDY    64  61  88 CALM      29.89S

......KANSAS AND MISSOURI......

CITY           SKY/WX    TMP DP  RH WIND       PRES   REMARKS
KANSAS CTY INT CLEAR     71  65  81 SE6       29.90S
DOWNTOWN KC    PTCLDY    72  66  81 E9        29.89S
COLUMBIA       CLOUDY    63  61  93 NE6       29.94R FOG
SEDALIA        CLOUDY    70  66  87 E7        29.92R
ST JOSEPH      PTCLDY    75  66  73 SE3       29.89S
ST LOUIS       LGT RAIN  64  56  75 E8        29.96R
SPIRIT OF STL  CLOUDY    63  60  90 E5        29.95R FOG
KIRKSVILLE     PTCLDY    67  61  81 E5        29.94R
WICHITA        PTCLDY    92  59  33 SE9       29.79F HX  91
TOPEKA         CLEAR     73  68  84 E6        29.89R
OLATHE         CLOUDY    70  65  84 E6        29.90R

......TENNESSEE......

CITY           SKY/WX    TMP DP  RH WIND       PRES   REMARKS
MEMPHIS        CLOUDY    73  62  68 S7        29.90F
NASHVILLE      MOCLDY    66  57  72 CALM      29.96R

......ARKANSAS.......

CITY           SKY/WX    TMP DP  RH WIND       PRES   REMARKS
FAYETTEVILLE   LGT RAIN  66  32  28 CALM      29.94R
FT SMITH       PTCLDY    81  72  74 E13       29.87S
LITTLE ROCK    MOCLDY    81  67  62 SE5       29.92F

......OKLAHOMA.......

CITY           SKY/WX    TMP DP  RH WIND       PRES   REMARKS
TULSA          MOCLDY    89  69  51 SW9       29.81S HX  93
PONCA CITY     MOCLDY    89  65  44 S7        29.80S HX  91
MCALESTER      CLOUDY    83  72  69 S6        29.87S
OKLAHOMA CITY  CLOUDY    85  69  58 S3        29.85F

......IOWA............

CITY           SKY/WX    TMP DP  RH WIND       PRES   REMARKS
DES MOINES     PTCLDY    72  56  57 E5        29.93S
QUAD CITIES    CLEAR     63  53  70 CALM      29.96R

......ILLINOIS........

CITY           SKY/WX    TMP DP  RH WIND       PRES   REMARKS
QUINCY         CLOUDY    65  57  75 SE7       29.96R
CHICAGO        CLEAR     66  46  48 E8        29.98R



USA.gov is the U.S. government's official web portal to all federal, state and local government web resources and services.